| time (UTC) | temp C | wind direction | speed KPH | gust KPH | rain 1hr cm | rain 24hr cm | rain mn cm | humidity % | barometer mb |
| 20260906134944 | 30 | 80 | 3.2 | 9.7 | 0.00 | 0.00 | 0.00 | 38 | 1022.4 |
| 20260906134445 | 30 | 340 | 4.8 | 12.9 | 0.00 | 0.00 | 0.00 | 39 | 1022.5 |
| 20260906133945 | 30 | 98 | 9.7 | 16.1 | 0.00 | 0.00 | 0.00 | 40 | 1022.6 |
| 20260906133446 | 30 | 171 | 4.8 | 12.9 | 0.00 | 0.00 | 0.00 | 39 | 1022.6 |
| 20260906132946 | 30 | 355 | 8.0 | 14.5 | 0.00 | 0.00 | 0.00 | 39 | 1022.7 |
| 20260906132445 | 30 | 309 | 4.8 | 12.9 | 0.00 | 0.00 | 0.00 | 38 | 1022.7 |
| 20260906131946 | 30 | 337 | 4.8 | 11.3 | 0.00 | 0.00 | 0.00 | 39 | 1022.7 |
| 20260906131445 | 29 | 338 | 1.6 | 12.9 | 0.00 | 0.00 | 0.00 | 43 | 1022.8 |
| 20260906130945 | 29 | 10 | 3.2 | 16.1 | 0.00 | 0.00 | 0.00 | 42 | 1022.9 |
| 20260906130445 | 29 | 304 | 3.2 | 11.3 | 0.00 | 0.00 | 0.00 | 43 | 1022.9 |
| 20260906125945 | 29 | 233 | 3.2 | 12.9 | 0.00 | 0.00 | 0.00 | 42 | 1023.1 |
| 20260906125445 | 29 | 263 | 1.6 | 9.7 | 0.00 | 0.00 | 0.00 | 43 | 1023.2 |
| 20260906124946 | 29 | 324 | 4.8 | 11.3 | 0.00 | 0.00 | 0.00 | 42 | 1023.3 |
| 20260906124445 | 29 | 173 | 3.2 | 11.3 | 0.00 | 0.00 | 0.00 | 39 | 1023.4 |
| 20260906123946 | 29 | 347 | 4.8 | 11.3 | 0.00 | 0.00 | 0.00 | 40 | 1023.5 |
| 20260906123445 | 29 | 99 | 1.6 | 6.4 | 0.00 | 0.00 | 0.00 | 45 | 1023.5 |
| 20260906122945 | 28 | 338 | 3.2 | 6.4 | 0.00 | 0.00 | 0.00 | 45 | 1023.6 |
| 20260906122445 | 28 | 333 | 3.2 | 11.3 | 0.00 | 0.00 | 0.00 | 42 | 1023.7 |
| 20260906121944 | 28 | 64 | 4.8 | 9.7 | 0.00 | 0.00 | 0.00 | 44 | 1023.7 |
| 20260906121446 | 28 | 22 | 4.8 | 14.5 | 0.00 | 0.00 | 0.00 | 46 | 1023.7 |
| 20260906120945 | 27 | 335 | 1.6 | 11.3 | 0.00 | 0.00 | 0.00 | 46 | 1023.8 |
| 20260906120445 | 28 | 267 | 1.6 | 14.5 | 0.00 | 0.00 | 0.00 | 47 | 1023.9 |
| 20260906115946 | 28 | 84 | 3.2 | 12.9 | 0.00 | 0.00 | 0.00 | 44 | 1023.9 |
| 20260906115446 | 28 | 308 | 3.2 | 11.3 | 0.00 | 0.00 | 0.00 | 45 | 1023.9 |
| 20260906114946 | 27 | 116 | 1.6 | 14.5 | 0.00 | 0.00 | 0.00 | 47 | 1024.0 |
| 20260906114446 | 27 | 22 | 4.8 | 9.7 | 0.00 | 0.00 | 0.00 | 48 | 1024.1 |
| 20260906113945 | 27 | 64 | 3.2 | 9.7 | 0.00 | 0.00 | 0.00 | 47 | 1024.2 |
| 20260906113446 | 27 | 355 | 3.2 | 9.7 | 0.00 | 0.00 | 0.00 | 46 | 1024.2 |
| 20260906112945 | 27 | 259 | 6.4 | 12.9 | 0.00 | 0.00 | 0.00 | 46 | 1024.3 |
| 20260906112445 | 27 | 32 | 4.8 | 12.9 | 0.00 | 0.00 | 0.00 | 48 | 1024.3 |
| 20260906111945 | 26 | 307 | 6.4 | 12.9 | 0.00 | 0.00 | 0.00 | 49 | 1024.4 |
| 20260906111444 | 26 | 197 | 3.2 | 11.3 | 0.00 | 0.00 | 0.00 | 49 | 1024.5 |
| 20260906110945 | 26 | 309 | 4.8 | 16.1 | 0.00 | 0.00 | 0.00 | 48 | 1024.5 |
| 20260906110445 | 26 | 269 | 4.8 | 8.0 | 0.00 | 0.00 | 0.00 | 52 | 1024.6 |
| 20260906105945 | 26 | 209 | 3.2 | 12.9 | 0.00 | 0.00 | 0.00 | 51 | 1024.6 |
| 20260906105444 | 26 | 48 | 4.8 | 9.7 | 0.00 | 0.00 | 0.00 | 50 | 1024.7 |
| 20260906104944 | 26 | 355 | 1.6 | 8.0 | 0.00 | 0.00 | 0.00 | 51 | 1024.8 |
| 20260906104445 | 25 | 296 | 3.2 | 9.7 | 0.00 | 0.00 | 0.00 | 50 | 1024.9 |
| 20260906103945 | 25 | 53 | 3.2 | 11.3 | 0.00 | 0.00 | 0.00 | 50 | 1024.9 |
| 20260906103445 | 25 | 5 | 3.2 | 8.0 | 0.00 | 0.00 | 0.00 | 50 | 1025.0 |
| 20260906102945 | 25 | 277 | 4.8 | 11.3 | 0.00 | 0.00 | 0.00 | 51 | 1025.0 |
| 20260906102446 | 25 | 327 | 1.6 | 6.4 | 0.00 | 0.00 | 0.00 | 52 | 1025.0 |
| 20260906101945 | 24 | 36 | 3.2 | 8.0 | 0.00 | 0.00 | 0.00 | 53 | 1025.0 |
| 20260906101446 | 24 | 360 | 4.8 | 9.7 | 0.00 | 0.00 | 0.00 | 53 | 1025.1 |
| 20260906100946 | 23 | 5 | 3.2 | 9.7 | 0.00 | 0.00 | 0.00 | 55 | 1025.2 |
| 20260906100446 | 23 | 324 | 3.2 | 9.7 | 0.00 | 0.00 | 0.00 | 56 | 1025.3 |
| 20260906095946 | 23 | 108 | 1.6 | 8.0 | 0.00 | 0.00 | 0.00 | 53 | 1025.4 |
| 20260906095446 | 23 | 95 | 6.4 | 11.3 | 0.00 | 0.00 | 0.00 | 57 | 1025.5 |
| 20260906094945 | 22 | 129 | 3.2 | 9.7 | 0.00 | 0.00 | 0.00 | 58 | 1025.6 |
| 20260906094445 | 22 | 318 | 3.2 | 9.7 | 0.00 | 0.00 | 0.00 | 59 | 1025.6 |
| 20260906093945 | 22 | 317 | 3.2 | 12.9 | 0.00 | 0.00 | 0.00 | 61 | 1025.7 |
| 20260906093444 | 21 | 90 | 3.2 | 9.7 | 0.00 | 0.00 | 0.00 | 63 | 1025.6 |
| 20260906092945 | 21 | 292 | 1.6 | 8.0 | 0.00 | 0.00 | 0.00 | 63 | 1025.7 |
| 20260906092445 | 21 | 307 | 3.2 | 8.0 | 0.00 | 0.00 | 0.00 | 64 | 1025.7 |
| 20260906091944 | 20 | 336 | 1.6 | 6.4 | 0.00 | 0.00 | 0.00 | 66 | 1025.7 |
| 20260906091446 | 20 | 300 | 3.2 | 9.7 | 0.00 | 0.00 | 0.00 | 69 | 1025.6 |
| 20260906090945 | 20 | 61 | 1.6 | 9.7 | 0.00 | 0.00 | 0.00 | 68 | 1025.7 |
| 20260906090446 | 19 | 355 | 1.6 | 8.0 | 0.00 | 0.00 | 0.00 | 68 | 1025.8 |
| 20260906085945 | 19 | 283 | 3.2 | 6.4 | 0.00 | 0.00 | 0.00 | 71 | 1025.7 |
| 20260906085445 | 18 | 28 | 4.8 | 8.0 | 0.00 | 0.00 | 0.00 | 71 | 1025.8 |
| 20260906084945 | 18 | 5 | 1.6 | 4.8 | 0.00 | 0.00 | 0.00 | 71 | 1025.9 |
| 20260906084445 | 18 | 343 | 1.6 | 4.8 | 0.00 | 0.00 | 0.00 | 73 | 1026.0 |
| 20260906083946 | 17 | 18 | 1.6 | 3.2 | 0.00 | 0.00 | 0.00 | 72 | 1026.0 |
| 20260906083445 | 17 | 105 | 3.2 | 8.0 | 0.00 | 0.00 | 0.00 | 73 | 1026.2 |
| 20260906082946 | 17 | 339 | 3.2 | 6.4 | 0.00 | 0.00 | 0.00 | 77 | 1026.2 |
| 20260906082445 | 17 | 197 | 3.2 | 6.4 | 0.00 | 0.00 | 0.00 | 77 | 1026.2 |
| 20260906081945 | 16 | 37 | 1.6 | 8.0 | 0.00 | 0.00 | 0.00 | 78 | 1026.2 |
| 20260906081445 | 16 | 342 | 1.6 | 4.8 | 0.00 | 0.00 | 0.00 | 78 | 1026.3 |
| 20260906080946 | 16 | 21 | 1.6 | 6.4 | 0.00 | 0.00 | 0.00 | 81 | 1026.2 |
| 20260906080445 | 16 | 140 | 0.0 | 3.2 | 0.00 | 0.00 | 0.00 | 80 | 1026.2 |
| 20260906075945 | 15 | 40 | 1.6 | 4.8 | 0.00 | 0.00 | 0.00 | 80 | 1026.2 |
| 20260906075444 | 15 | 28 | 0.0 | 3.2 | 0.00 | 0.00 | 0.00 | 80 | 1026.2 |
| 20260906074945 | 15 | 343 | 1.6 | 4.8 | 0.00 | 0.00 | 0.00 | 80 | 1026.2 |
| 20260906074446 | 15 | 298 | 3.2 | 8.0 | 0.00 | 0.00 | 0.00 | 82 | 1026.2 |
| 20260906073945 | 15 | 338 | 3.2 | 6.4 | 0.00 | 0.00 | 0.00 | 84 | 1026.1 |
| 20260906073445 | 14 | 12 | 3.2 | 8.0 | 0.00 | 0.00 | 0.00 | 84 | 1026.1 |
| 20260906072946 | 13 | 286 | 3.2 | 6.4 | 0.00 | 0.00 | 0.00 | 84 | 1026.0 |
| 20260906072446 | 13 | 335 | 3.2 | 8.0 | 0.00 | 0.00 | 0.00 | 87 | 1025.9 |
| 20260906071946 | 13 | 268 | 1.6 | 6.4 | 0.00 | 0.00 | 0.00 | 89 | 1025.9 |
| 20260906071446 | 12 | 323 | 1.6 | 3.2 | 0.00 | 0.00 | 0.00 | 90 | 1025.9 |
| 20260906070945 | 12 | 148 | 0.0 | 3.2 | 0.00 | 0.00 | 0.00 | 90 | 1026.0 |
| 20260906070446 | 12 | 58 | 0.0 | 3.2 | 0.00 | 0.00 | 0.00 | 90 | 1026.1 |
| 20260906065945 | 11 | 92 | 0.0 | 1.6 | 0.00 | 0.00 | 0.00 | 90 | 1026.1 |
| 20260906065446 | 11 | 115 | 0.0 | 1.6 | 0.00 | 0.00 | 0.00 | 90 | 1026.1 |
| 20260906064946 | 11 | 125 | 1.6 | 3.2 | 0.00 | 0.00 | 0.00 | 90 | 1026.1 |
| 20260906064445 | 11 | 355 | 0.0 | 1.6 | 0.00 | 0.00 | 0.00 | 90 | 1026.2 |
| 20260906063946 | 11 | 351 | 0.0 | 3.2 | 0.00 | 0.00 | 0.00 | 90 | 1026.3 |
| 20260906063445 | 10 | 299 | 0.0 | 1.6 | 0.00 | 0.00 | 0.00 | 90 | 1026.4 |
| 20260906062945 | 10 | 299 | 0.0 | 1.6 | 0.00 | 0.00 | 0.00 | 90 | 1026.4 |
| 20260906062444 | 10 | 299 | 0.0 | 1.6 | 0.00 | 0.00 | 0.00 | 89 | 1026.3 |
| 20260906061945 | 10 | 180 | 0.0 | 0.0 | 0.00 | 0.00 | 0.00 | 89 | 1026.4 |
| 20260906061445 | 10 | 180 | 0.0 | 1.6 | 0.00 | 0.00 | 0.00 | 89 | 1026.3 |
| 20260906060944 | 10 | 198 | 0.0 | 0.0 | 0.00 | 0.00 | 0.00 | 89 | 1026.3 |
| 20260906060445 | 9 | 171 | 0.0 | 1.6 | 0.00 | 0.00 | 0.00 | 89 | 1026.3 |
| 20260906055946 | 9 | 144 | 0.0 | 1.6 | 0.00 | 0.00 | 0.00 | 89 | 1026.3 |
| 20260906055445 | 9 | 136 | 0.0 | 3.2 | 0.00 | 0.00 | 0.00 | 88 | 1026.2 |
| 20260906054945 | 9 | 118 | 1.6 | 3.2 | 0.00 | 0.00 | 0.00 | 88 | 1026.3 |
| 20260906054446 | 9 | 72 | 0.0 | 1.6 | 0.00 | 0.00 | 0.00 | 88 | 1026.2 |
| 20260906053946 | 8 | 65 | 1.6 | 1.6 | 0.00 | 0.00 | 0.00 | 88 | 1026.2 |
| 20260906053446 | 8 | 65 | 0.0 | 0.0 | 0.00 | 0.00 | 0.00 | 88 | 1026.1 |
| 20260906052946 | 8 | 65 | 0.0 | 3.2 | 0.00 | 0.00 | 0.00 | 88 | 1026.0 |
| 20260906052445 | 8 | 97 | 0.0 | 3.2 | 0.00 | 0.00 | 0.00 | 88 | 1026.1 |
| 20260906051946 | 8 | 97 | 0.0 | 1.6 | 0.00 | 0.00 | 0.00 | 87 | 1025.9 |
| 20260906051445 | 9 | 111 | 0.0 | 0.0 | 0.00 | 0.00 | 0.00 | 88 | 1025.9 |
| 20260906050946 | 9 | 155 | 0.0 | 0.0 | 0.00 | 0.00 | 0.00 | 88 | 1025.9 |
| 20260906050446 | 9 | 155 | 0.0 | 1.6 | 0.00 | 0.00 | 0.00 | 88 | 1026.0 |
| 20260906045946 | 9 | 159 | 0.0 | 3.2 | 0.00 | 0.00 | 0.00 | 88 | 1025.9 |
| 20260906045446 | 9 | 150 | 0.0 | 3.2 | 0.00 | 0.00 | 0.00 | 88 | 1025.9 |
| 20260906044945 | 9 | 157 | 0.0 | 3.2 | 0.00 | 0.00 | 0.00 | 87 | 1025.9 |
| 20260906044445 | 9 | 158 | 0.0 | 0.0 | 0.00 | 0.00 | 0.00 | 87 | 1025.9 |
| 20260906043946 | 9 | 158 | 0.0 | 1.6 | 0.00 | 0.00 | 0.00 | 87 | 1025.9 |
| 20260906043446 | 9 | 158 | 0.0 | 1.6 | 0.00 | 0.00 | 0.00 | 87 | 1025.9 |
| 20260906042945 | 9 | 148 | 0.0 | 1.6 | 0.00 | 0.00 | 0.00 | 87 | 1025.9 |
| 20260906042445 | 9 | 124 | 0.0 | 1.6 | 0.00 | 0.00 | 0.00 | 87 | 1025.8 |
| 20260906041944 | 9 | 124 | 0.0 | 1.6 | 0.00 | 0.00 | 0.00 | 86 | 1025.8 |
| 20260906041444 | 9 | 132 | 0.0 | 1.6 | 0.00 | 0.00 | 0.00 | 87 | 1025.8 |
| 20260906040946 | 9 | 163 | 0.0 | 0.0 | 0.00 | 0.00 | 0.00 | 86 | 1025.8 |
| 20260906040444 | 9 | 163 | 0.0 | 0.0 | 0.00 | 0.00 | 0.00 | 86 | 1025.7 |
| 20260906035944 | 9 | 163 | 0.0 | 0.0 | 0.00 | 0.00 | 0.00 | 86 | 1025.6 |
| 20260906035444 | 9 | 163 | 0.0 | 0.0 | 0.00 | 0.00 | 0.00 | 86 | 1025.8 |
| 20260906034945 | 9 | 163 | 1.6 | 1.6 | 0.00 | 0.00 | 0.00 | 86 | 1025.8 |
| 20260906034445 | 9 | 177 | 0.0 | 0.0 | 0.00 | 0.00 | 0.00 | 86 | 1025.9 |
| 20260906033944 | 10 | 177 | 0.0 | 0.0 | 0.00 | 0.00 | 0.00 | 86 | 1025.9 |
| 20260906033445 | 10 | 177 | 0.0 | 0.0 | 0.00 | 0.00 | 0.00 | 86 | 1025.9 |
| 20260906032945 | 10 | 177 | 0.0 | 0.0 | 0.00 | 0.00 | 0.00 | 86 | 1025.9 |
| 20260906032445 | 10 | 177 | 0.0 | 1.6 | 0.00 | 0.00 | 0.00 | 86 | 1026.0 |
| 20260906031945 | 10 | 177 | 0.0 | 3.2 | 0.00 | 0.00 | 0.00 | 86 | 1025.9 |
| 20260906031445 | 10 | 186 | 1.6 | 3.2 | 0.00 | 0.00 | 0.00 | 86 | 1025.9 |
| 20260906030945 | 10 | 140 | 0.0 | 3.2 | 0.00 | 0.00 | 0.00 | 86 | 1025.9 |
| 20260906030220 | 10 | 158 | 0.0 | 3.2 | 0.00 | 0.00 | 0.00 | 85 | 1025.9 |
| 20260906025720 | 10 | 156 | 0.0 | 1.6 | 0.00 | 0.18 | 0.00 | 85 | 1025.9 |
| 20260906025220 | 10 | 156 | 0.0 | 1.6 | 0.00 | 0.18 | 0.00 | 85 | 1025.8 |
| 20260906024719 | 10 | 156 | 0.0 | 1.6 | 0.00 | 0.18 | 0.00 | 85 | 1025.7 |
| 20260906024219 | 10 | 156 | 0.0 | 1.6 | 0.00 | 0.18 | 0.00 | 85 | 1025.7 |
| 20260906023719 | 10 | 155 | 0.0 | 1.6 | 0.00 | 0.18 | 0.00 | 85 | 1025.6 |
| 20260906023220 | 10 | 155 | 0.0 | 0.0 | 0.00 | 0.18 | 0.00 | 85 | 1025.6 |
| 20260906022720 | 10 | 155 | 0.0 | 0.0 | 0.00 | 0.18 | 0.00 | 85 | 1025.7 |
| 20260906022219 | 10 | 155 | 0.0 | 0.0 | 0.00 | 0.18 | 0.00 | 85 | 1025.7 |
| 20260906021719 | 10 | 155 | 0.0 | 1.6 | 0.00 | 0.18 | 0.00 | 84 | 1025.7 |
| 20260906021218 | 10 | 155 | 0.0 | 0.0 | 0.00 | 0.18 | 0.00 | 85 | 1025.7 |
| 20260906020719 | 10 | 155 | 0.0 | 1.6 | 0.00 | 0.18 | 0.00 | 84 | 1025.7 |
| 20260906020218 | 10 | 147 | 0.0 | 1.6 | 0.00 | 0.18 | 0.00 | 84 | 1025.8 |
| 20260906015718 | 10 | 147 | 0.0 | 0.0 | 0.00 | 0.51 | 0.00 | 84 | 1025.7 |
| 20260906015220 | 10 | 147 | 1.6 | 3.2 | 0.00 | 0.51 | 0.00 | 84 | 1025.7 |
| 20260906014719 | 11 | 143 | 1.6 | 3.2 | 0.00 | 0.51 | 0.00 | 84 | 1025.7 |
| 20260906014219 | 11 | 110 | 0.0 | 1.6 | 0.00 | 0.51 | 0.00 | 84 | 1025.7 |
| 20260906013719 | 11 | 110 | 0.0 | 1.6 | 0.00 | 0.51 | 0.00 | 84 | 1025.7 |
| 20260906013220 | 11 | 109 | 0.0 | 1.6 | 0.00 | 0.51 | 0.00 | 84 | 1025.7 |
| 20260906012719 | 11 | 109 | 0.0 | 1.6 | 0.00 | 0.51 | 0.00 | 84 | 1025.6 |
| 20260906012219 | 11 | 109 | 0.0 | 1.6 | 0.00 | 0.51 | 0.00 | 84 | 1025.7 |
| 20260906011720 | 11 | 134 | 1.6 | 3.2 | 0.00 | 0.51 | 0.00 | 84 | 1025.7 |
| 20260906011219 | 11 | 132 | 1.6 | 4.8 | 0.00 | 0.51 | 0.00 | 84 | 1025.8 |
| 20260906010719 | 11 | 157 | 3.2 | 4.8 | 0.00 | 0.51 | 0.00 | 84 | 1025.8 |
| 20260906010218 | 11 | 68 | 0.0 | 0.0 | 0.00 | 0.51 | 0.00 | 83 | 1025.7 |
| 20260906005718 | 11 | 67 | 0.0 | 0.0 | 0.00 | 0.51 | 0.00 | 83 | 1025.7 |
| 20260906005219 | 11 | 67 | 0.0 | 0.0 | 0.00 | 0.51 | 0.00 | 83 | 1025.7 |
| 20260906004718 | 11 | 67 | 0.0 | 0.0 | 0.00 | 0.51 | 0.00 | 83 | 1025.7 |
| 20260906004218 | 11 | 153 | 0.0 | 0.0 | 0.00 | 0.51 | 0.00 | 82 | 1025.7 |
| 20260906003719 | 11 | 153 | 0.0 | 0.0 | 0.00 | 0.51 | 0.00 | 82 | 1025.7 |
| 20260906003219 | 11 | 153 | 0.0 | 0.0 | 0.00 | 0.51 | 0.00 | 82 | 1025.8 |
| 20260906002718 | 11 | 153 | 0.0 | 0.0 | 0.00 | 0.51 | 0.00 | 82 | 1025.6 |
| 20260906002218 | 11 | 153 | 0.0 | 0.0 | 0.00 | 0.51 | 0.00 | 82 | 1025.7 |
| 20260906001718 | 11 | 153 | 0.0 | 0.0 | 0.00 | 0.51 | 0.00 | 82 | 1025.7 |
| 20260906001220 | 11 | 153 | 0.0 | 0.0 | 0.00 | 0.51 | 0.00 | 82 | 1025.7 |
| 20260906000718 | 11 | 153 | 0.0 | 0.0 | 0.00 | 0.51 | 0.00 | 82 | 1025.6 |
| 20260906000220 | 11 | 153 | 0.0 | 0.0 | 0.00 | 0.51 | 0.00 | 81 | 1025.6 |
| 20260905235720 | 11 | 153 | 0.0 | 0.0 | 0.00 | 0.51 | 0.00 | 81 | 1025.5 |
| 20260905235219 | 11 | 153 | 0.0 | 0.0 | 0.00 | 0.51 | 0.00 | 81 | 1025.6 |
| 20260905234720 | 11 | 153 | 0.0 | 0.0 | 0.00 | 0.51 | 0.00 | 81 | 1025.6 |
| 20260905234220 | 12 | 153 | 0.0 | 0.0 | 0.00 | 0.51 | 0.00 | 81 | 1025.7 |
| 20260905233719 | 12 | 153 | 0.0 | 0.0 | 0.00 | 0.51 | 0.00 | 81 | 1025.7 |
| 20260905233220 | 12 | 153 | 0.0 | 0.0 | 0.00 | 0.51 | 0.00 | 81 | 1025.7 |
| 20260905232719 | 12 | 153 | 0.0 | 0.0 | 0.00 | 0.51 | 0.00 | 80 | 1025.7 |
| 20260905232220 | 12 | 153 | 0.0 | 0.0 | 0.00 | 0.51 | 0.00 | 81 | 1025.5 |
| 20260905231718 | 12 | 150 | 0.0 | 0.0 | 0.00 | 0.51 | 0.00 | 80 | 1025.5 |
| 20260905231219 | 12 | 150 | 1.6 | 1.6 | 0.00 | 0.51 | 0.00 | 80 | 1025.5 |
| 20260905230719 | 12 | 150 | 0.0 | 0.0 | 0.00 | 0.51 | 0.00 | 80 | 1025.5 |
| 20260905230218 | 12 | 150 | 0.0 | 0.0 | 0.00 | 0.51 | 0.00 | 80 | 1025.5 |
| 20260905225719 | 12 | 150 | 0.0 | 3.2 | 0.00 | 0.51 | 0.00 | 80 | 1025.5 |
| 20260905225219 | 12 | 151 | 0.0 | 1.6 | 0.00 | 0.51 | 0.00 | 79 | 1025.6 |
| 20260905224719 | 12 | 145 | 0.0 | 0.0 | 0.00 | 0.51 | 0.00 | 79 | 1025.6 |
| 20260905224219 | 12 | 145 | 0.0 | 0.0 | 0.00 | 0.51 | 0.00 | 79 | 1025.6 |
| 20260905223718 | 13 | 145 | 0.0 | 1.6 | 0.00 | 0.51 | 0.00 | 79 | 1025.7 |
| 20260905223219 | 13 | 145 | 0.0 | 3.2 | 0.00 | 0.51 | 0.00 | 79 | 1025.6 |
| 20260905222720 | 13 | 145 | 1.6 | 3.2 | 0.00 | 0.51 | 0.00 | 79 | 1025.5 |
| 20260905222219 | 13 | 150 | 0.0 | 1.6 | 0.00 | 0.51 | 0.00 | 78 | 1025.6 |
| 20260905221719 | 13 | 150 | 1.6 | 1.6 | 0.00 | 0.51 | 0.00 | 78 | 1025.5 |
| 20260905221219 | 13 | 150 | 0.0 | 1.6 | 0.00 | 0.51 | 0.00 | 78 | 1025.5 |
| 20260905220719 | 13 | 150 | 0.0 | 1.6 | 0.00 | 0.51 | 0.00 | 78 | 1025.4 |
| 20260905220220 | 13 | 150 | 0.0 | 0.0 | 0.00 | 0.51 | 0.00 | 78 | 1025.3 |
| 20260905215720 | 13 | 150 | 0.0 | 1.6 | 0.00 | 0.51 | 0.51 | 78 | 1025.3 |
| 20260905215220 | 13 | 150 | 0.0 | 0.0 | 0.00 | 0.51 | 0.51 | 77 | 1025.3 |
| 20260905214719 | 13 | 150 | 0.0 | 3.2 | 0.00 | 0.51 | 0.51 | 77 | 1025.3 |
| 20260905214218 | 13 | 150 | 0.0 | 3.2 | 0.00 | 0.51 | 0.51 | 77 | 1025.2 |
| 20260905213720 | 13 | 145 | 3.2 | 4.8 | 0.00 | 0.51 | 0.51 | 77 | 1025.2 |
| 20260905213218 | 14 | 139 | 1.6 | 3.2 | 0.00 | 0.51 | 0.51 | 77 | 1025.2 |
| 20260905212718 | 14 | 169 | 1.6 | 3.2 | 0.00 | 0.51 | 0.51 | 76 | 1025.2 |
| 20260905212219 | 14 | 92 | 0.0 | 1.6 | 0.00 | 0.51 | 0.51 | 76 | 1025.1 |
| 20260905211718 | 14 | 72 | 0.0 | 1.6 | 0.00 | 0.51 | 0.51 | 76 | 1025.2 |
| 20260905211219 | 14 | 115 | 0.0 | 1.6 | 0.00 | 0.51 | 0.51 | 75 | 1025.2 |
| 20260905210718 | 15 | 139 | 0.0 | 1.6 | 0.00 | 0.51 | 0.51 | 75 | 1025.2 |
| 20260905210218 | 15 | 139 | 0.0 | 0.0 | 0.00 | 0.51 | 0.51 | 75 | 1025.1 |
| 20260905205719 | 15 | 139 | 0.0 | 3.2 | 0.00 | 0.51 | 0.51 | 75 | 1025.1 |
| 20260905205219 | 15 | 146 | 0.0 | 1.6 | 0.00 | 0.51 | 0.51 | 75 | 1025.1 |
| 20260905204719 | 15 | 146 | 0.0 | 1.6 | 0.00 | 0.51 | 0.51 | 74 | 1025.0 |
| 20260905204219 | 15 | 146 | 0.0 | 0.0 | 0.00 | 0.51 | 0.51 | 74 | 1025.0 |
| 20260905203719 | 15 | 146 | 0.0 | 1.6 | 0.00 | 0.51 | 0.51 | 74 | 1025.0 |
| 20260905203219 | 16 | 146 | 1.6 | 1.6 | 0.00 | 0.51 | 0.51 | 74 | 1024.9 |
| 20260905202719 | 16 | 151 | 1.6 | 3.2 | 0.00 | 0.51 | 0.51 | 74 | 1024.9 |
| 20260905202220 | 16 | 131 | 0.0 | 1.6 | 0.00 | 0.51 | 0.51 | 72 | 1024.8 |
| 20260905201719 | 16 | 126 | 0.0 | 3.2 | 0.00 | 0.51 | 0.51 | 72 | 1024.9 |
| 20260905201220 | 16 | 86 | 0.0 | 1.6 | 0.00 | 0.51 | 0.51 | 72 | 1024.7 |
| 20260905200719 | 17 | 77 | 1.6 | 3.2 | 0.00 | 0.51 | 0.51 | 71 | 1024.6 |
| 20260905200219 | 17 | 19 | 0.0 | 0.0 | 0.00 | 0.51 | 0.51 | 71 | 1024.5 |
| 20260905195719 | 17 | 19 | 0.0 | 1.6 | 0.00 | 0.51 | 0.51 | 70 | 1024.6 |
| 20260905195220 | 17 | 21 | 0.0 | 1.6 | 0.00 | 0.51 | 0.51 | 70 | 1024.4 |
| 20260905194719 | 17 | 340 | 0.0 | 1.6 | 0.00 | 0.51 | 0.51 | 69 | 1024.3 |
| 20260905194219 | 18 | 55 | 0.0 | 3.2 | 0.00 | 0.51 | 0.51 | 68 | 1024.2 |
| 20260905193718 | 18 | 90 | 0.0 | 3.2 | 0.00 | 0.51 | 0.51 | 67 | 1024.1 |
| 20260905193219 | 18 | 111 | 0.0 | 1.6 | 0.00 | 0.51 | 0.51 | 67 | 1024.1 |
| 20260905192718 | 18 | 115 | 0.0 | 1.6 | 0.00 | 0.51 | 0.51 | 65 | 1024.2 |
| 20260905192219 | 19 | 116 | 1.6 | 3.2 | 0.00 | 0.51 | 0.51 | 65 | 1024.1 |
| 20260905191718 | 19 | 119 | 0.0 | 3.2 | 0.00 | 0.51 | 0.51 | 64 | 1024.1 |
| 20260905191219 | 20 | 107 | 0.0 | 1.6 | 0.00 | 0.51 | 0.51 | 63 | 1024.0 |
| 20260905190718 | 20 | 98 | 1.6 | 3.2 | 0.00 | 0.51 | 0.51 | 63 | 1024.0 |
| 20260905190220 | 20 | 30 | 0.0 | 3.2 | 0.00 | 0.51 | 0.51 | 62 | 1024.0 |
| 20260905185720 | 21 | 61 | 1.6 | 3.2 | 0.00 | 0.51 | 0.51 | 61 | 1023.9 |
| 20260905185220 | 21 | 45 | 1.6 | 3.2 | 0.00 | 0.51 | 0.51 | 59 | 1023.8 |
| 20260905184720 | 21 | 5 | 0.0 | 3.2 | 0.00 | 0.51 | 0.51 | 58 | 1023.8 |
| 20260905184219 | 21 | 44 | 1.6 | 3.2 | 0.00 | 0.51 | 0.51 | 57 | 1023.7 |
| 20260905183720 | 22 | 16 | 0.0 | 1.6 | 0.00 | 0.51 | 0.51 | 57 | 1023.6 |
| 20260905183219 | 22 | 26 | 0.0 | 3.2 | 0.00 | 0.51 | 0.51 | 55 | 1023.5 |
| 20260905182719 | 22 | 22 | 3.2 | 3.2 | 0.00 | 0.51 | 0.51 | 54 | 1023.4 |
| 20260905182218 | 22 | 360 | 0.0 | 3.2 | 0.00 | 0.51 | 0.51 | 53 | 1023.4 |
| 20260905181719 | 22 | 22 | 1.6 | 9.7 | 0.00 | 0.51 | 0.51 | 51 | 1023.3 |
| 20260905181218 | 22 | 37 | 1.6 | 6.4 | 0.00 | 0.51 | 0.51 | 52 | 1023.2 |
| 20260905180719 | 23 | 347 | 1.6 | 6.4 | 0.00 | 0.51 | 0.51 | 52 | 1023.2 |
| 20260905180219 | 23 | 360 | 1.6 | 4.8 | 0.00 | 0.51 | 0.51 | 53 | 1023.1 |
| 20260905175719 | 23 | 342 | 1.6 | 6.4 | 0.00 | 0.51 | 0.51 | 52 | 1023.1 |
| 20260905175219 | 24 | 5 | 1.6 | 4.8 | 0.00 | 0.51 | 0.51 | 53 | 1023.1 |
| 20260905174720 | 24 | 350 | 1.6 | 4.8 | 0.00 | 0.51 | 0.51 | 53 | 1023.1 |
| 20260905174220 | 25 | 33 | 0.0 | 4.8 | 0.00 | 0.51 | 0.51 | 55 | 1023.0 |
| 20260905173719 | 25 | 360 | 1.6 | 6.4 | 0.00 | 0.51 | 0.51 | 54 | 1023.0 |
| 20260905173220 | 25 | 313 | 6.4 | 8.0 | 0.00 | 0.51 | 0.51 | 54 | 1022.9 |
| 20260905172719 | 25 | 330 | 4.8 | 9.7 | 0.00 | 0.51 | 0.51 | 53 | 1022.8 |
| 20260905172220 | 25 | 242 | 3.2 | 8.0 | 0.00 | 0.51 | 0.51 | 53 | 1022.7 |
| 20260905171720 | 25 | 264 | 3.2 | 11.3 | 0.00 | 0.51 | 0.51 | 52 | 1022.7 |
| 20260905171219 | 25 | 241 | 3.2 | 11.3 | 0.00 | 0.51 | 0.51 | 52 | 1022.6 |
| 20260905170720 | 25 | 276 | 4.8 | 8.0 | 0.00 | 0.51 | 0.51 | 52 | 1022.5 |
| 20260905170219 | 26 | 306 | 4.8 | 9.7 | 0.00 | 0.51 | 0.51 | 50 | 1022.5 |
| 20260905165719 | 26 | 28 | 4.8 | 8.0 | 0.00 | 0.51 | 0.51 | 49 | 1022.5 |
| 20260905165219 | 26 | 300 | 0.0 | 3.2 | 0.00 | 0.51 | 0.51 | 45 | 1022.6 |
| 20260905164718 | 26 | 273 | 0.0 | 6.4 | 0.00 | 0.51 | 0.51 | 44 | 1022.5 |
| 20260905164218 | 26 | 298 | 6.4 | 9.7 | 0.00 | 0.51 | 0.51 | 41 | 1022.5 |
| 20260905163719 | 26 | 334 | 1.6 | 14.5 | 0.00 | 0.51 | 0.51 | 46 | 1022.5 |
| 20260905163219 | 27 | 20 | 3.2 | 9.7 | 0.00 | 0.51 | 0.51 | 47 | 1022.5 |
| 20260905162720 | 27 | 261 | 4.8 | 8.0 | 0.00 | 0.51 | 0.51 | 45 | 1022.4 |
| 20260905162219 | 27 | 337 | 4.8 | 9.7 | 0.00 | 0.51 | 0.51 | 47 | 1022.3 |
| 20260905161719 | 27 | 275 | 8.0 | 12.9 | 0.00 | 0.51 | 0.51 | 42 | 1022.2 |
| 20260905161219 | 28 | 279 | 3.2 | 8.0 | 0.00 | 0.51 | 0.51 | 43 | 1022.2 |
| 20260905160719 | 27 | 24 | 0.0 | 4.8 | 0.00 | 0.51 | 0.51 | 42 | 1022.2 |
| 20260905160220 | 27 | 71 | 1.6 | 4.8 | 0.00 | 0.51 | 0.51 | 45 | 1022.2 |
| 20260905155719 | 27 | 350 | 1.6 | 4.8 | 0.00 | 0.51 | 0.51 | 43 | 1022.2 |
| 20260905155220 | 27 | 261 | 0.0 | 8.0 | 0.00 | 0.51 | 0.51 | 44 | 1022.1 |
| 20260905154720 | 27 | 51 | 1.6 | 6.4 | 0.00 | 0.51 | 0.51 | 44 | 1022.1 |
| 20260905154220 | 27 | 360 | 1.6 | 4.8 | 0.00 | 0.51 | 0.51 | 45 | 1022.2 |
| 20260905153720 | 27 | 5 | 1.6 | 4.8 | 0.00 | 0.51 | 0.51 | 44 | 1022.1 |
| 20260905153220 | 28 | 215 | 3.2 | 9.7 | 0.00 | 0.51 | 0.51 | 42 | 1022.1 |
| 20260905152719 | 28 | 90 | 3.2 | 6.4 | 0.00 | 0.51 | 0.51 | 43 | 1022.1 |
| 20260905152219 | 28 | 350 | 4.8 | 8.0 | 0.00 | 0.51 | 0.51 | 45 | 1022.2 |
| 20260905151718 | 27 | 355 | 1.6 | 12.9 | 0.00 | 0.51 | 0.51 | 46 | 1022.2 |
| 20260905151218 | 27 | 360 | 4.8 | 9.7 | 0.00 | 0.51 | 0.51 | 46 | 1022.1 |
| 20260905150719 | 27 | 347 | 4.8 | 9.7 | 0.00 | 0.51 | 0.51 | 47 | 1022.1 |
| 20260905150219 | 27 | 302 | 3.2 | 14.5 | 0.00 | 0.51 | 0.51 | 45 | 1022.1 |
| 20260905145720 | 27 | 295 | 4.8 | 12.9 | 0.00 | 0.51 | 0.51 | 45 | 1022.2 |
| 20260905145218 | 27 | 333 | 4.8 | 12.9 | 0.00 | 0.51 | 0.51 | 43 | 1022.1 |
| 20260905144720 | 27 | 234 | 4.8 | 9.7 | 0.00 | 0.51 | 0.51 | 45 | 1022.1 |
| 20260905144220 | 27 | 321 | 3.2 | 9.7 | 0.00 | 0.51 | 0.51 | 45 | 1022.1 |
| 20260905143720 | 28 | 350 | 4.8 | 8.0 | 0.00 | 0.51 | 0.51 | 42 | 1022.1 |
| 20260905143220 | 28 | 318 | 6.4 | 17.7 | 0.00 | 0.51 | 0.51 | 43 | 1022.2 |
| 20260905142720 | 28 | 17 | 3.2 | 9.7 | 0.00 | 0.51 | 0.51 | 40 | 1022.1 |
| 20260905142219 | 29 | 111 | 4.8 | 9.7 | 0.00 | 0.51 | 0.51 | 41 | 1022.1 |
| 20260905141720 | 29 | 43 | 3.2 | 12.9 | 0.00 | 0.51 | 0.51 | 44 | 1022.1 |
| 20260905141220 | 28 | 360 | 1.6 | 8.0 | 0.00 | 0.51 | 0.51 | 43 | 1022.1 |
| 20260905140719 | 28 | 43 | 3.2 | 11.3 | 0.00 | 0.51 | 0.51 | 44 | 1022.2 |
| 20260905140219 | 28 | 279 | 6.4 | 12.9 | 0.00 | 0.51 | 0.51 | 41 | 1022.3 |
| 20260905135718 | 28 | 345 | 3.2 | 6.4 | 0.00 | 0.51 | 0.51 | 45 | 1022.2 |
| 20260905135219 | 28 | 146 | 3.2 | 9.7 | 0.00 | 0.51 | 0.51 | 47 | 1022.2 |